Year,Month,Day,Hour,Minute,Value (Times are PST for temperature in C)
2007,09,19,00,00,8.90
2007,09,19,00,01,8.90
2007,09,19,00,02,8.90
2007,09,19,00,03,8.90
2007,09,19,00,04,8.90
2007,09,19,00,05,8.90
2007,09,19,00,06,8.90
2007,09,19,00,07,8.90
2007,09,19,00,08,8.90
2007,09,19,00,09,8.90
2007,09,19,00,10,8.90
2007,09,19,00,11,8.90
2007,09,19,00,12,8.90
2007,09,19,00,13,8.90
2007,09,19,00,14,8.90
2007,09,19,00,15,8.90
2007,09,19,00,16,8.90
2007,09,19,00,17,8.90
2007,09,19,00,18,8.90
2007,09,19,00,19,8.90
2007,09,19,00,20,8.90
2007,09,19,00,21,8.90
2007,09,19,00,22,8.90
2007,09,19,00,23,9.00
2007,09,19,00,24,9.00
2007,09,19,00,25,8.90
2007,09,19,00,26,8.90
2007,09,19,00,27,9.00
2007,09,19,00,28,9.00
2007,09,19,00,29,9.00
2007,09,19,00,30,9.00
2007,09,19,00,31,9.00
2007,09,19,00,32,9.00
2007,09,19,00,33,9.00
2007,09,19,00,34,9.00
2007,09,19,00,35,9.00
2007,09,19,00,36,9.10
2007,09,19,00,37,9.10
2007,09,19,00,38,9.10
2007,09,19,00,39,9.10
2007,09,19,00,40,9.10
2007,09,19,00,41,9.10
2007,09,19,00,42,9.10
2007,09,19,00,43,9.10
2007,09,19,00,44,9.10
2007,09,19,00,45,9.10
2007,09,19,00,46,9.00
2007,09,19,00,47,9.00
2007,09,19,00,48,9.00
2007,09,19,00,49,9.00
2007,09,19,00,50,9.00
2007,09,19,00,51,9.00
2007,09,19,00,52,9.00
2007,09,19,00,53,9.00
2007,09,19,00,54,9.00
2007,09,19,00,55,8.90
2007,09,19,00,56,8.90
2007,09,19,00,57,8.90
2007,09,19,00,58,8.90
2007,09,19,00,59,8.90
2007,09,19,01,00,8.90
2007,09,19,01,01,8.90
2007,09,19,01,02,8.90
2007,09,19,01,03,8.90
2007,09,19,01,04,8.90
2007,09,19,01,05,9.00
2007,09,19,01,06,9.00
2007,09,19,01,07,9.00
2007,09,19,01,08,9.00
2007,09,19,01,09,9.00
2007,09,19,01,10,9.00
2007,09,19,01,11,9.00
2007,09,19,01,12,8.90
2007,09,19,01,13,9.00
2007,09,19,01,14,9.00
2007,09,19,01,15,9.00
2007,09,19,01,16,9.00
2007,09,19,01,17,9.00
2007,09,19,01,18,9.00
2007,09,19,01,19,9.00
2007,09,19,01,20,9.00
2007,09,19,01,21,8.90
2007,09,19,01,22,8.90
2007,09,19,01,23,8.90
2007,09,19,01,24,8.90
2007,09,19,01,25,8.90
2007,09,19,01,26,8.90
2007,09,19,01,27,8.90
2007,09,19,01,28,8.90
2007,09,19,01,29,8.90
2007,09,19,01,30,8.90
2007,09,19,01,31,9.00
2007,09,19,01,32,8.90
2007,09,19,01,33,9.00
2007,09,19,01,34,8.90
2007,09,19,01,35,8.90
2007,09,19,01,36,8.90
2007,09,19,01,37,8.90
2007,09,19,01,38,8.90
2007,09,19,01,39,8.90
2007,09,19,01,40,8.90
2007,09,19,01,41,8.90
2007,09,19,01,42,8.90
2007,09,19,01,43,8.90
2007,09,19,01,44,8.90
2007,09,19,01,45,8.80
2007,09,19,01,46,8.80
2007,09,19,01,47,8.80
2007,09,19,01,48,8.80
2007,09,19,01,49,8.70
2007,09,19,01,50,8.70
2007,09,19,01,51,8.70
2007,09,19,01,52,8.70
2007,09,19,01,53,8.60
2007,09,19,01,54,8.60
2007,09,19,01,55,8.60
2007,09,19,01,56,8.60
2007,09,19,01,57,8.60
2007,09,19,01,58,8.60
2007,09,19,01,59,8.60
2007,09,19,02,00,8.60
2007,09,19,02,01,8.50
2007,09,19,02,02,8.50
2007,09,19,02,03,8.50
2007,09,19,02,04,8.50
2007,09,19,02,05,8.50
2007,09,19,02,06,8.50
2007,09,19,02,07,8.50
2007,09,19,02,08,8.50
2007,09,19,02,09,8.40
2007,09,19,02,10,8.40
2007,09,19,02,11,8.40
2007,09,19,02,12,8.50
2007,09,19,02,13,8.50
2007,09,19,02,14,8.50
2007,09,19,02,15,8.50
2007,09,19,02,16,8.60
2007,09,19,02,17,8.60
2007,09,19,02,18,8.60
2007,09,19,02,19,8.60
2007,09,19,02,20,8.60
2007,09,19,02,21,8.60
2007,09,19,02,22,8.60
2007,09,19,02,23,8.60
2007,09,19,02,24,8.60
2007,09,19,02,25,8.60
2007,09,19,02,26,8.60
2007,09,19,02,27,8.60
2007,09,19,02,28,8.60
2007,09,19,02,29,8.60
2007,09,19,02,30,8.60
2007,09,19,02,31,8.60
2007,09,19,02,32,8.60
2007,09,19,02,33,8.60
2007,09,19,02,34,8.60
2007,09,19,02,35,8.60
2007,09,19,02,36,8.60
2007,09,19,02,37,8.60
2007,09,19,02,38,8.60
2007,09,19,02,39,8.50
2007,09,19,02,40,8.50
2007,09,19,02,41,8.50
2007,09,19,02,42,8.50
2007,09,19,02,43,8.40
2007,09,19,02,44,8.40
2007,09,19,02,45,8.40
2007,09,19,02,46,8.40
2007,09,19,02,47,8.40
2007,09,19,02,48,8.40
2007,09,19,02,49,8.40
2007,09,19,02,50,8.40
2007,09,19,02,51,8.40
2007,09,19,02,52,8.40
2007,09,19,02,53,8.40
2007,09,19,02,54,8.40
2007,09,19,02,55,8.40
2007,09,19,02,56,8.40
2007,09,19,02,57,8.40
2007,09,19,02,58,8.40
2007,09,19,02,59,8.30
2007,09,19,03,00,8.30
2007,09,19,03,01,8.30
2007,09,19,03,02,8.30
2007,09,19,03,03,8.20
2007,09,19,03,04,8.20
2007,09,19,03,05,8.20
2007,09,19,03,06,8.20
2007,09,19,03,07,8.20
2007,09,19,03,08,8.20
2007,09,19,03,09,8.20
2007,09,19,03,10,8.10
2007,09,19,03,11,8.10
2007,09,19,03,12,8.10
2007,09,19,03,13,8.10
2007,09,19,03,14,8.10
2007,09,19,03,15,8.10
2007,09,19,03,16,8.10
2007,09,19,03,17,8.20
2007,09,19,03,18,8.20
2007,09,19,03,19,8.20
2007,09,19,03,20,8.30
2007,09,19,03,21,8.30
2007,09,19,03,22,8.30
2007,09,19,03,23,8.30
2007,09,19,03,24,8.40
2007,09,19,03,25,8.40
2007,09,19,03,26,8.50
2007,09,19,03,27,8.60
2007,09,19,03,28,8.60
2007,09,19,03,29,8.70
2007,09,19,03,30,8.80
2007,09,19,03,31,8.80
2007,09,19,03,32,8.90
2007,09,19,03,33,8.90
2007,09,19,03,34,8.90
2007,09,19,03,35,8.90
2007,09,19,03,36,8.90
2007,09,19,03,37,8.90
2007,09,19,03,38,8.90
2007,09,19,03,39,8.90
2007,09,19,03,40,8.90
2007,09,19,03,41,8.90
2007,09,19,03,42,8.90
2007,09,19,03,43,8.90
2007,09,19,03,44,9.00
2007,09,19,03,45,9.00
2007,09,19,03,46,9.10
2007,09,19,03,47,9.10
2007,09,19,03,48,9.10
2007,09,19,03,49,9.20
2007,09,19,03,50,9.20
2007,09,19,03,51,9.30
2007,09,19,03,52,9.30
2007,09,19,03,53,9.30
2007,09,19,03,54,9.30
2007,09,19,03,55,9.30
2007,09,19,03,56,9.30
2007,09,19,03,57,9.30
2007,09,19,03,58,9.30
2007,09,19,03,59,9.30
2007,09,19,04,00,9.20
2007,09,19,04,01,9.20
2007,09,19,04,02,9.20
2007,09,19,04,03,9.20
2007,09,19,04,04,9.20
2007,09,19,04,05,9.20
2007,09,19,04,06,9.20
2007,09,19,04,07,9.20
2007,09,19,04,08,9.20
2007,09,19,04,09,9.20
2007,09,19,04,10,9.10
2007,09,19,04,11,9.10
2007,09,19,04,12,9.10
2007,09,19,04,13,9.10
2007,09,19,04,14,9.10
2007,09,19,04,15,9.10
2007,09,19,04,16,9.10
2007,09,19,04,17,9.10
2007,09,19,04,18,9.10
2007,09,19,04,19,9.10
2007,09,19,04,20,9.10
2007,09,19,04,21,9.00
2007,09,19,04,22,9.10
2007,09,19,04,23,9.10
2007,09,19,04,24,9.10
2007,09,19,04,25,9.00
2007,09,19,04,26,9.00
2007,09,19,04,27,9.00
2007,09,19,04,28,9.00
2007,09,19,04,29,8.90
2007,09,19,04,30,8.90
2007,09,19,04,31,8.90
2007,09,19,04,32,8.90
2007,09,19,04,33,8.90
2007,09,19,04,34,8.90
2007,09,19,04,35,8.90
2007,09,19,04,36,8.90
2007,09,19,04,37,8.90
2007,09,19,04,38,8.90
2007,09,19,04,39,8.90
2007,09,19,04,40,8.90
2007,09,19,04,41,8.90
2007,09,19,04,42,8.90
2007,09,19,04,43,8.90
2007,09,19,04,44,8.90
2007,09,19,04,45,8.90
2007,09,19,04,46,8.90
2007,09,19,04,47,8.90
2007,09,19,04,48,8.80
2007,09,19,04,49,8.80
2007,09,19,04,50,8.80
2007,09,19,04,51,8.80
2007,09,19,04,52,8.80
2007,09,19,04,53,8.70
2007,09,19,04,54,8.70
2007,09,19,04,55,8.70
2007,09,19,04,56,8.70
2007,09,19,04,57,8.60
2007,09,19,04,58,8.60
2007,09,19,04,59,8.60
2007,09,19,05,00,8.50
2007,09,19,05,01,8.50
2007,09,19,05,02,8.40
2007,09,19,05,03,8.40
2007,09,19,05,04,8.40
2007,09,19,05,05,8.30
2007,09,19,05,06,8.30
2007,09,19,05,07,8.30
2007,09,19,05,08,8.30
2007,09,19,05,09,8.30
2007,09,19,05,10,8.30
2007,09,19,05,11,8.40
2007,09,19,05,12,8.50
2007,09,19,05,13,8.50
2007,09,19,05,14,8.50
2007,09,19,05,15,8.50
2007,09,19,05,16,8.50
2007,09,19,05,17,8.50
2007,09,19,05,18,8.40
2007,09,19,05,19,8.40
2007,09,19,05,20,8.40
2007,09,19,05,21,8.40
2007,09,19,05,22,8.40
2007,09,19,05,23,8.40
2007,09,19,05,24,8.40
2007,09,19,05,25,8.40
2007,09,19,05,26,8.40
2007,09,19,05,27,8.40
2007,09,19,05,28,8.30
2007,09,19,05,29,8.30
2007,09,19,05,30,8.40
2007,09,19,05,31,8.40
2007,09,19,05,32,8.40
2007,09,19,05,33,8.50
2007,09,19,05,34,8.60
2007,09,19,05,35,8.70
2007,09,19,05,36,8.70
2007,09,19,05,37,8.80
2007,09,19,05,38,8.80
2007,09,19,05,39,8.90
2007,09,19,05,40,8.90
2007,09,19,05,41,8.90
2007,09,19,05,42,9.00
2007,09,19,05,43,9.00
2007,09,19,05,44,9.00
2007,09,19,05,45,9.00
2007,09,19,05,46,9.00
2007,09,19,05,47,9.00
2007,09,19,05,48,9.00
2007,09,19,05,49,9.10
2007,09,19,05,50,9.00
2007,09,19,05,51,9.00
2007,09,19,05,52,9.00
2007,09,19,05,53,9.00
2007,09,19,05,54,9.00
2007,09,19,05,55,9.00
2007,09,19,05,56,9.00
2007,09,19,05,57,9.00
2007,09,19,05,58,9.00
2007,09,19,05,59,9.00
2007,09,19,06,00,9.00
2007,09,19,06,01,9.00
2007,09,19,06,02,9.00
2007,09,19,06,03,9.00
2007,09,19,06,04,9.00
2007,09,19,06,05,8.90
2007,09,19,06,06,8.90
2007,09,19,06,07,8.90
2007,09,19,06,08,8.90
2007,09,19,06,09,8.90
2007,09,19,06,10,8.90
2007,09,19,06,11,9.00
2007,09,19,06,12,9.00
2007,09,19,06,13,9.10
2007,09,19,06,14,9.10
2007,09,19,06,15,9.10
2007,09,19,06,16,9.20
2007,09,19,06,17,9.20
2007,09,19,06,18,9.20
2007,09,19,06,19,9.20
2007,09,19,06,20,9.20
2007,09,19,06,21,9.20
2007,09,19,06,22,9.20
2007,09,19,06,23,9.20
2007,09,19,06,24,9.20
2007,09,19,06,25,9.20
2007,09,19,06,26,9.20
2007,09,19,06,27,9.30
2007,09,19,06,28,9.30
2007,09,19,06,29,9.30
2007,09,19,06,30,9.30
2007,09,19,06,31,9.30
2007,09,19,06,32,9.30
2007,09,19,06,33,9.30
2007,09,19,06,34,9.20
2007,09,19,06,35,9.20
2007,09,19,06,36,9.20
2007,09,19,06,37,9.20
2007,09,19,06,38,9.20
2007,09,19,06,39,9.20
2007,09,19,06,40,9.20
2007,09,19,06,41,9.20
2007,09,19,06,42,9.20
2007,09,19,06,43,9.20
2007,09,19,06,44,9.20
2007,09,19,06,45,9.20
2007,09,19,06,46,9.20
2007,09,19,06,47,9.20
2007,09,19,06,48,9.20
2007,09,19,06,49,9.20
2007,09,19,06,50,9.20
2007,09,19,06,51,9.20
2007,09,19,06,52,9.10
2007,09,19,06,53,9.10
2007,09,19,06,54,9.20
2007,09,19,06,55,9.20
2007,09,19,06,56,9.20
2007,09,19,06,57,9.20
2007,09,19,06,58,9.20
2007,09,19,06,59,9.30
2007,09,19,07,00,9.30
2007,09,19,07,01,9.30
2007,09,19,07,02,9.30
2007,09,19,07,03,9.30
2007,09,19,07,04,9.30
2007,09,19,07,05,9.30
2007,09,19,07,06,9.30
2007,09,19,07,07,9.30
2007,09,19,07,08,9.30
2007,09,19,07,09,9.30
2007,09,19,07,10,9.30
2007,09,19,07,11,9.20
2007,09,19,07,12,9.20
2007,09,19,07,13,9.20
2007,09,19,07,14,9.20
2007,09,19,07,15,9.20
2007,09,19,07,16,9.20
2007,09,19,07,17,9.30
2007,09,19,07,18,9.30
2007,09,19,07,19,9.30
2007,09,19,07,20,9.30
2007,09,19,07,21,9.30
2007,09,19,07,22,9.30
2007,09,19,07,23,9.40
2007,09,19,07,24,9.40
2007,09,19,07,25,9.40
2007,09,19,07,26,9.40
2007,09,19,07,27,9.40
2007,09,19,07,28,9.40
2007,09,19,07,29,9.40
2007,09,19,07,30,9.30
2007,09,19,07,31,9.30
2007,09,19,07,32,9.30
2007,09,19,07,33,9.30
2007,09,19,07,34,9.30
2007,09,19,07,35,9.30
2007,09,19,07,36,9.30
2007,09,19,07,37,9.20
2007,09,19,07,38,9.00
2007,09,19,07,39,8.90
2007,09,19,07,40,8.80
2007,09,19,07,41,8.80
2007,09,19,07,42,8.80
2007,09,19,07,43,8.80
2007,09,19,07,44,8.80
2007,09,19,07,45,8.80
2007,09,19,07,46,8.80
2007,09,19,07,47,8.70
2007,09,19,07,48,8.70
2007,09,19,07,49,8.70
2007,09,19,07,50,8.70
2007,09,19,07,51,8.70
2007,09,19,07,52,8.70
2007,09,19,07,53,8.70
2007,09,19,07,54,8.70
2007,09,19,07,55,8.70
2007,09,19,07,56,8.80
2007,09,19,07,57,8.80
2007,09,19,07,58,8.80
2007,09,19,07,59,8.80
2007,09,19,08,00,8.80
2007,09,19,08,01,8.90
2007,09,19,08,02,8.90
2007,09,19,08,03,8.90
2007,09,19,08,04,8.90
2007,09,19,08,05,8.90
2007,09,19,08,06,8.90
2007,09,19,08,07,8.90
2007,09,19,08,08,9.00
2007,09,19,08,09,9.00
2007,09,19,08,10,9.00
2007,09,19,08,11,9.10
2007,09,19,08,12,9.10
2007,09,19,08,13,9.20
2007,09,19,08,14,9.20
2007,09,19,08,15,9.30
2007,09,19,08,16,9.40
2007,09,19,08,17,9.40
2007,09,19,08,18,9.50
2007,09,19,08,19,9.60
2007,09,19,08,20,9.70
2007,09,19,08,21,9.80
2007,09,19,08,22,9.90
2007,09,19,08,23,10.00
2007,09,19,08,24,10.10
2007,09,19,08,25,10.20
2007,09,19,08,26,10.30
2007,09,19,08,27,10.40
2007,09,19,08,28,10.50
2007,09,19,08,29,10.60
2007,09,19,08,30,10.60
2007,09,19,08,31,10.70
2007,09,19,08,32,10.70
2007,09,19,08,33,10.80
2007,09,19,08,34,10.90
2007,09,19,08,35,11.00
2007,09,19,08,36,11.10
2007,09,19,08,37,11.20
2007,09,19,08,38,11.30
2007,09,19,08,39,11.30
2007,09,19,08,40,11.40
2007,09,19,08,41,11.50
2007,09,19,08,42,11.60
2007,09,19,08,43,11.70
2007,09,19,08,44,11.70
2007,09,19,08,45,11.80
2007,09,19,08,46,11.80
2007,09,19,08,47,11.80
2007,09,19,08,48,11.80
2007,09,19,08,49,11.80
2007,09,19,08,50,11.80
2007,09,19,08,51,11.80
2007,09,19,08,52,11.80
2007,09,19,08,53,11.70
2007,09,19,08,54,11.70
2007,09,19,08,55,11.60
2007,09,19,08,56,11.60
2007,09,19,08,57,11.60
2007,09,19,08,58,11.60
2007,09,19,08,59,11.60
2007,09,19,09,00,11.60
2007,09,19,09,01,11.70
2007,09,19,09,02,11.70
2007,09,19,09,03,11.80
2007,09,19,09,04,11.80
2007,09,19,09,05,11.90
2007,09,19,09,06,11.90
2007,09,19,09,07,12.00
2007,09,19,09,08,12.00
2007,09,19,09,09,12.10
2007,09,19,09,10,12.20
2007,09,19,09,11,12.20
2007,09,19,09,12,12.30
2007,09,19,09,13,12.40
2007,09,19,09,14,12.50
2007,09,19,09,15,12.60
2007,09,19,09,16,12.60
2007,09,19,09,17,12.70
2007,09,19,09,18,12.70
2007,09,19,09,19,12.70
2007,09,19,09,20,12.70
2007,09,19,09,21,12.60
2007,09,19,09,22,12.70
2007,09,19,09,23,12.70
2007,09,19,09,24,12.70
2007,09,19,09,25,12.60
2007,09,19,09,26,12.70
2007,09,19,09,27,12.70
2007,09,19,09,28,12.70
2007,09,19,09,29,12.70
2007,09,19,09,30,12.70
2007,09,19,09,31,12.60
2007,09,19,09,32,12.60
2007,09,19,09,33,12.60
2007,09,19,09,34,12.60
2007,09,19,09,35,12.70
2007,09,19,09,36,12.70
2007,09,19,09,37,12.70
2007,09,19,09,38,12.80
2007,09,19,09,39,12.80
2007,09,19,09,40,12.80
2007,09,19,09,41,12.90
2007,09,19,09,42,12.90
2007,09,19,09,43,13.00
2007,09,19,09,44,13.10
2007,09,19,09,45,13.20
2007,09,19,09,46,13.30
2007,09,19,09,47,13.30
2007,09,19,09,48,13.30
2007,09,19,09,49,13.30
2007,09,19,09,50,13.30
2007,09,19,09,51,13.30
2007,09,19,09,52,13.30
2007,09,19,09,53,13.30
2007,09,19,09,54,13.30
2007,09,19,09,55,13.30
2007,09,19,09,56,13.30
2007,09,19,09,57,13.30
2007,09,19,09,58,13.30
2007,09,19,09,59,13.40
2007,09,19,10,00,13.40
2007,09,19,10,01,13.40
2007,09,19,10,02,13.40
2007,09,19,10,03,13.50
2007,09,19,10,04,13.50
2007,09,19,10,05,13.60
2007,09,19,10,06,13.70
2007,09,19,10,07,13.80
2007,09,19,10,08,13.80
2007,09,19,10,09,13.80
2007,09,19,10,10,13.80
2007,09,19,10,11,13.90
2007,09,19,10,12,14.00
2007,09,19,10,13,14.00
2007,09,19,10,14,14.10
2007,09,19,10,15,14.10
2007,09,19,10,16,14.10
2007,09,19,10,17,14.10
2007,09,19,10,18,14.10
2007,09,19,10,19,14.20
2007,09,19,10,20,14.30
2007,09,19,10,21,14.40
2007,09,19,10,22,14.50
2007,09,19,10,23,14.60
2007,09,19,10,24,14.60
2007,09,19,10,25,14.60
2007,09,19,10,26,14.50
2007,09,19,10,27,14.50
2007,09,19,10,28,14.40
2007,09,19,10,29,14.30
2007,09,19,10,30,14.30
2007,09,19,10,31,14.30
2007,09,19,10,32,14.30
2007,09,19,10,33,14.40
2007,09,19,10,34,14.50
2007,09,19,10,35,14.40
2007,09,19,10,36,14.40
2007,09,19,10,37,14.40
2007,09,19,10,38,14.40
2007,09,19,10,39,14.40
2007,09,19,10,40,14.40
2007,09,19,10,41,14.40
2007,09,19,10,42,14.40
2007,09,19,10,43,14.30
2007,09,19,10,44,14.30
2007,09,19,10,45,14.30
2007,09,19,10,46,14.30
2007,09,19,10,47,14.30
2007,09,19,10,48,14.40
2007,09,19,10,49,14.40
2007,09,19,10,50,14.40
2007,09,19,10,51,14.40
2007,09,19,10,52,14.40
2007,09,19,10,53,14.40
2007,09,19,10,54,14.40
2007,09,19,10,55,14.30
2007,09,19,10,56,14.40
2007,09,19,10,57,14.40
2007,09,19,10,58,14.40
2007,09,19,10,59,14.40
2007,09,19,11,00,14.50
2007,09,19,11,01,14.60
2007,09,19,11,02,14.60
2007,09,19,11,03,14.70
2007,09,19,11,04,14.70
2007,09,19,11,05,14.80
2007,09,19,11,06,14.80
2007,09,19,11,07,14.80
2007,09,19,11,08,14.80
2007,09,19,11,09,14.80
2007,09,19,11,10,14.80
2007,09,19,11,11,14.80
2007,09,19,11,12,14.70
2007,09,19,11,13,14.70
2007,09,19,11,14,14.70
2007,09,19,11,15,14.80
2007,09,19,11,16,14.80
2007,09,19,11,17,14.90
2007,09,19,11,18,15.00
2007,09,19,11,19,15.00
2007,09,19,11,20,15.00
2007,09,19,11,21,15.00
2007,09,19,11,22,15.00
2007,09,19,11,23,15.10
2007,09,19,11,24,15.20
2007,09,19,11,25,15.20
2007,09,19,11,26,15.20
2007,09,19,11,27,15.20
2007,09,19,11,28,15.30
2007,09,19,11,29,15.30
2007,09,19,11,30,15.30
2007,09,19,11,31,15.30
2007,09,19,11,32,15.30
2007,09,19,11,33,15.30
2007,09,19,11,34,15.30
2007,09,19,11,35,15.30
2007,09,19,11,36,15.30
2007,09,19,11,37,15.30
2007,09,19,11,38,15.40
2007,09,19,11,39,15.30
2007,09,19,11,40,15.30
2007,09,19,11,41,15.40
2007,09,19,11,42,15.40
2007,09,19,11,43,15.40
2007,09,19,11,44,15.40
2007,09,19,11,45,15.40
2007,09,19,11,46,15.40
2007,09,19,11,47,15.40
2007,09,19,11,48,15.40
2007,09,19,11,49,15.40
2007,09,19,11,50,15.50
2007,09,19,11,51,15.60
2007,09,19,11,52,15.70
2007,09,19,11,53,15.70
2007,09,19,11,54,15.70
2007,09,19,11,55,15.80
2007,09,19,11,56,15.80
2007,09,19,11,57,15.90
2007,09,19,11,58,15.90
2007,09,19,11,59,16.00
2007,09,19,12,00,16.00
2007,09,19,12,01,16.10
2007,09,19,12,02,16.20
2007,09,19,12,03,16.30
2007,09,19,12,04,16.30
2007,09,19,12,05,16.40
2007,09,19,12,06,16.40
2007,09,19,12,07,16.40
2007,09,19,12,08,16.30
2007,09,19,12,09,16.40
2007,09,19,12,10,16.40
2007,09,19,12,11,16.50
2007,09,19,12,12,16.50
2007,09,19,12,13,16.50
2007,09,19,12,14,16.40
2007,09,19,12,15,16.40
2007,09,19,12,16,16.30
2007,09,19,12,17,16.30
2007,09,19,12,18,16.40
2007,09,19,12,19,16.40
2007,09,19,12,20,16.40
2007,09,19,12,21,16.40
2007,09,19,12,22,16.40
2007,09,19,12,23,16.50
2007,09,19,12,24,16.50
2007,09,19,12,25,16.60
2007,09,19,12,26,16.60
2007,09,19,12,27,16.60
2007,09,19,12,28,16.70
2007,09,19,12,29,16.70
2007,09,19,12,30,16.80
2007,09,19,12,31,16.80
2007,09,19,12,32,16.80
2007,09,19,12,33,16.80
2007,09,19,12,34,16.80
2007,09,19,12,35,16.90
2007,09,19,12,36,16.90
2007,09,19,12,37,16.90
2007,09,19,12,38,16.80
2007,09,19,12,39,16.70
2007,09,19,12,40,16.70
2007,09,19,12,41,16.60
2007,09,19,12,42,16.50
2007,09,19,12,43,16.50
2007,09,19,12,44,16.40
2007,09,19,12,45,16.40
2007,09,19,12,46,16.40
2007,09,19,12,47,16.30
2007,09,19,12,48,16.20
2007,09,19,12,49,16.10
2007,09,19,12,50,16.10
2007,09,19,12,51,16.10
2007,09,19,12,52,16.10
2007,09,19,12,53,16.10
2007,09,19,12,54,16.10
2007,09,19,12,55,16.10
2007,09,19,12,56,16.20
2007,09,19,12,57,16.20
2007,09,19,12,58,16.20
2007,09,19,12,59,16.20
2007,09,19,13,00,16.20
2007,09,19,13,01,16.20
2007,09,19,13,02,16.20
2007,09,19,13,03,16.30
2007,09,19,13,04,16.40
2007,09,19,13,05,16.40
2007,09,19,13,06,16.50
2007,09,19,13,07,16.60
2007,09,19,13,08,16.70
2007,09,19,13,09,16.70
2007,09,19,13,10,16.80
2007,09,19,13,11,16.90
2007,09,19,13,12,16.90
2007,09,19,13,13,17.00
2007,09,19,13,14,17.10
2007,09,19,13,15,17.10
2007,09,19,13,16,17.10
2007,09,19,13,17,17.10
2007,09,19,13,18,17.10
2007,09,19,13,19,17.10
2007,09,19,13,20,17.10
2007,09,19,13,21,17.10
2007,09,19,13,22,17.10
2007,09,19,13,23,17.10
2007,09,19,13,24,17.10
2007,09,19,13,25,17.00
2007,09,19,13,26,17.00
2007,09,19,13,27,16.90
2007,09,19,13,28,16.90
2007,09,19,13,29,16.90
2007,09,19,13,30,16.90
2007,09,19,13,31,17.00
2007,09,19,13,32,17.00
2007,09,19,13,33,17.00
2007,09,19,13,34,17.00
2007,09,19,13,35,17.00
2007,09,19,13,36,16.90
2007,09,19,13,37,17.00
2007,09,19,13,38,17.10
2007,09,19,13,39,17.10
2007,09,19,13,40,17.20
2007,09,19,13,41,17.20
2007,09,19,13,42,17.30
2007,09,19,13,43,17.40
2007,09,19,13,44,17.50
2007,09,19,13,45,17.50
2007,09,19,13,46,17.60
2007,09,19,13,47,17.70
2007,09,19,13,48,17.70
2007,09,19,13,49,17.70
2007,09,19,13,50,17.70
2007,09,19,13,51,17.70
2007,09,19,13,52,17.70
2007,09,19,13,53,17.70
2007,09,19,13,54,17.70
2007,09,19,13,55,17.70
2007,09,19,13,56,17.70
2007,09,19,13,57,17.60
2007,09,19,13,58,17.60
2007,09,19,13,59,17.50
2007,09,19,14,00,17.50
2007,09,19,14,01,17.40
2007,09,19,14,02,17.40
2007,09,19,14,03,17.50
2007,09,19,14,04,17.60
2007,09,19,14,05,17.60
2007,09,19,14,06,17.60
2007,09,19,14,07,17.60
2007,09,19,14,08,17.70
2007,09,19,14,09,17.70
2007,09,19,14,10,17.70
2007,09,19,14,11,17.80
2007,09,19,14,12,17.70
2007,09,19,14,13,17.70
2007,09,19,14,14,17.70
2007,09,19,14,15,17.70
2007,09,19,14,16,17.70
2007,09,19,14,17,17.70
2007,09,19,14,18,17.60
2007,09,19,14,19,17.60
2007,09,19,14,20,17.60
2007,09,19,14,21,17.60
2007,09,19,14,22,17.60
2007,09,19,14,23,17.60
2007,09,19,14,24,17.70
2007,09,19,14,25,17.80
2007,09,19,14,26,17.90
2007,09,19,14,27,17.90
2007,09,19,14,28,17.80
2007,09,19,14,29,17.90
2007,09,19,14,30,18.00
2007,09,19,14,31,18.10
2007,09,19,14,32,18.10
2007,09,19,14,33,18.20
2007,09,19,14,34,18.20
2007,09,19,14,35,18.20
2007,09,19,14,36,18.30
2007,09,19,14,37,18.30
2007,09,19,14,38,18.30
2007,09,19,14,39,18.40
2007,09,19,14,40,18.30
2007,09,19,14,41,18.30
2007,09,19,14,42,18.30
2007,09,19,14,43,18.30
2007,09,19,14,44,18.20
2007,09,19,14,45,18.00
2007,09,19,14,46,17.90
2007,09,19,14,47,17.90
2007,09,19,14,48,17.90
2007,09,19,14,49,17.90
2007,09,19,14,50,17.90
2007,09,19,14,51,17.90
2007,09,19,14,52,18.00
2007,09,19,14,53,18.10
2007,09,19,14,54,18.10
2007,09,19,14,55,18.20
2007,09,19,14,56,18.20
2007,09,19,14,57,18.20
2007,09,19,14,58,18.10
2007,09,19,14,59,18.10
2007,09,19,15,00,18.00
2007,09,19,15,01,17.90
2007,09,19,15,02,17.80
2007,09,19,15,03,17.80
2007,09,19,15,04,17.80
2007,09,19,15,05,17.90
2007,09,19,15,06,18.00
2007,09,19,15,07,18.00
2007,09,19,15,08,18.00
2007,09,19,15,09,18.00
2007,09,19,15,10,18.00
2007,09,19,15,11,18.00
2007,09,19,15,12,18.10
2007,09,19,15,13,18.10
2007,09,19,15,14,18.10
2007,09,19,15,15,18.10
2007,09,19,15,16,18.00
2007,09,19,15,17,17.90
2007,09,19,15,18,18.00
2007,09,19,15,19,18.00
2007,09,19,15,20,18.00
2007,09,19,15,21,18.00
2007,09,19,15,22,17.90
2007,09,19,15,23,17.90
2007,09,19,15,24,17.80
2007,09,19,15,25,17.80
2007,09,19,15,26,17.80
2007,09,19,15,27,17.80
2007,09,19,15,28,17.80
2007,09,19,15,29,17.90
2007,09,19,15,30,17.90
2007,09,19,15,31,17.90
2007,09,19,15,32,17.90
2007,09,19,15,33,18.00
2007,09,19,15,34,18.00
2007,09,19,15,35,18.00
2007,09,19,15,36,18.00
2007,09,19,15,37,18.00
2007,09,19,15,38,18.10
2007,09,19,15,39,18.10
2007,09,19,15,40,18.10
2007,09,19,15,41,18.20
2007,09,19,15,42,18.20
2007,09,19,15,43,18.20
2007,09,19,15,44,18.30
2007,09,19,15,45,18.30
2007,09,19,15,46,18.30
2007,09,19,15,47,18.30
2007,09,19,15,48,18.30
2007,09,19,15,49,18.30
2007,09,19,15,50,18.30
2007,09,19,15,51,18.30
2007,09,19,15,52,18.30
2007,09,19,15,53,18.30
2007,09,19,15,54,18.20
2007,09,19,15,55,18.20
2007,09,19,15,56,18.20
2007,09,19,15,57,18.20
2007,09,19,15,58,18.20
2007,09,19,15,59,18.20
2007,09,19,16,00,18.20
2007,09,19,16,01,18.30
2007,09,19,16,02,18.30
2007,09,19,16,03,18.30
2007,09,19,16,04,18.30
2007,09,19,16,05,18.40
2007,09,19,16,06,18.40
2007,09,19,16,07,18.40
2007,09,19,16,08,18.40
2007,09,19,16,09,18.40
2007,09,19,16,10,18.40
2007,09,19,16,11,18.40
2007,09,19,16,12,18.30
2007,09,19,16,13,18.20
2007,09,19,16,14,18.10
2007,09,19,16,15,18.00
2007,09,19,16,16,17.90
2007,09,19,16,17,17.90
2007,09,19,16,18,17.80
2007,09,19,16,19,17.70
2007,09,19,16,20,17.60
2007,09,19,16,21,17.60
2007,09,19,16,22,17.70
2007,09,19,16,23,17.70
2007,09,19,16,24,17.70
2007,09,19,16,25,17.80
2007,09,19,16,26,17.80
2007,09,19,16,27,17.90
2007,09,19,16,28,18.00
2007,09,19,16,29,18.00
2007,09,19,16,30,17.90
2007,09,19,16,31,17.90
2007,09,19,16,32,17.90
2007,09,19,16,33,17.90
2007,09,19,16,34,17.90
2007,09,19,16,35,17.90
2007,09,19,16,36,17.90
2007,09,19,16,37,17.90
2007,09,19,16,38,18.00
2007,09,19,16,39,18.00
2007,09,19,16,40,17.90
2007,09,19,16,41,17.90
2007,09,19,16,42,17.90
2007,09,19,16,43,17.80
2007,09,19,16,44,17.80
2007,09,19,16,45,17.80
2007,09,19,16,46,17.80
2007,09,19,16,47,17.80
2007,09,19,16,48,17.80
2007,09,19,16,49,17.80
2007,09,19,16,50,17.80
2007,09,19,16,51,17.80
2007,09,19,16,52,17.80
2007,09,19,16,53,17.80
2007,09,19,16,54,17.80
2007,09,19,16,55,17.80
2007,09,19,16,56,17.90
2007,09,19,16,57,17.90
2007,09,19,16,58,17.90
2007,09,19,16,59,17.90
2007,09,19,17,00,17.90
2007,09,19,17,01,17.90
2007,09,19,17,02,17.90
2007,09,19,17,03,17.90
2007,09,19,17,04,17.90
2007,09,19,17,05,17.90
2007,09,19,17,06,17.90
2007,09,19,17,07,18.00
2007,09,19,17,08,18.00
2007,09,19,17,09,18.10
2007,09,19,17,10,18.10
2007,09,19,17,11,18.00
2007,09,19,17,12,18.00
2007,09,19,17,13,18.00
2007,09,19,17,14,18.00
2007,09,19,17,15,17.90
2007,09,19,17,16,17.90
2007,09,19,17,17,17.90
2007,09,19,17,18,17.90
2007,09,19,17,19,17.80
2007,09,19,17,20,17.80
2007,09,19,17,21,17.80
2007,09,19,17,22,17.80
2007,09,19,17,23,17.80
2007,09,19,17,24,17.80
2007,09,19,17,25,17.80
2007,09,19,17,26,17.80
2007,09,19,17,27,17.80
2007,09,19,17,28,17.80
2007,09,19,17,29,17.80
2007,09,19,17,30,17.80
2007,09,19,17,31,17.80
2007,09,19,17,32,17.80
2007,09,19,17,33,17.90
2007,09,19,17,34,17.90
2007,09,19,17,35,17.90
2007,09,19,17,36,17.90
2007,09,19,17,37,17.90
2007,09,19,17,38,17.90
2007,09,19,17,39,17.90
2007,09,19,17,40,17.90
2007,09,19,17,41,17.90